Location: Del Amo
(33.8464°N, 118.2104°W)
Time: 01:20:44
(UTC+00:00)

SR - Pass Details

Date: 24 September 2024
Orbit: 578 x 855 km, 66.7° (Epoch: 02 October)

Event Time Altitude Azimuth Distance (km) Brightness Sun altitude
Rises 02:38:38 0° 355° (N) 2,990 ? -11.5°
Reaches altitude 10° 02:42:12 10° 24° (NNE) 2,140 ? -12.2°
Maximum altitude 02:44:26 13° 52° (NE) 1,983 ? -12.7°
Enters shadow 02:45:18 12° 63° (ENE) 2,029 ? -12.9°
Drops below altitude 10° 02:46:43 10° 79° (E) 2,221 - -13.2°
Sets 02:50:33 0° 106° (ESE) 3,212 - -13.9°
